TimeCDT,TemperatureF,Dew PointF,Humidity,Sea Level PressureIn,VisibilityMPH,Wind Direction,Wind SpeedMPH,Gust SpeedMPH,PrecipitationIn,Events,Conditions,WindDirDegrees,DateUTC
12:53 AM,21.9,18.0,85,30.38,10.0,Calm,Calm,-,N/A,,Clear,0,2013-04-21 05:53:00
1:53 AM,21.9,17.1,82,30.39,10.0,Calm,Calm,-,N/A,,Clear,0,2013-04-21 06:53:00
2:53 AM,23.0,19.0,85,30.38,10.0,Calm,Calm,-,N/A,,Clear,0,2013-04-21 07:53:00
3:53 AM,28.0,12.9,53,30.36,10.0,SE,5.8,-,N/A,,Overcast,140,2013-04-21 08:53:00
4:53 AM,28.9,12.9,51,30.36,10.0,SE,4.6,-,N/A,,Overcast,140,2013-04-21 09:53:00
5:53 AM,30.0,15.1,54,30.37,10.0,SSE,5.8,-,N/A,,Overcast,160,2013-04-21 10:53:00
6:53 AM,30.0,19.9,66,30.37,10.0,SSE,8.1,-,N/A,,Overcast,160,2013-04-21 11:53:00
7:53 AM,30.0,25.0,82,30.38,4.0,SSE,9.2,-,0.00,Snow,Light Snow,150,2013-04-21 12:53:00
8:53 AM,30.9,27.0,85,30.36,3.0,SSE,11.5,-,0.00,Snow,Light Snow,160,2013-04-21 13:53:00
9:16 AM,32.0,28.4,87,30.30,4.0,SSE,9.2,-,0.00,Snow,Light Snow,150,2013-04-21 14:16:00
9:53 AM,34.0,28.0,79,30.34,8.0,South,13.8,20.7,0.00,Snow,Light Snow,170,2013-04-21 14:53:00
10:10 AM,33.8,28.4,81,30.28,2.5,SSE,10.4,20.7,0.00,Snow,Light Snow,160,2013-04-21 15:10:00
10:22 AM,35.6,30.2,81,30.28,3.0,SSE,12.7,21.9,0.00,Snow,Light Snow,150,2013-04-21 15:22:00
10:41 AM,35.6,30.2,81,30.27,2.0,SSE,12.7,26.5,0.00,Snow,Light Snow,160,2013-04-21 15:41:00
10:53 AM,35.1,30.0,82,30.32,2.5,SSE,12.7,21.9,0.00,Snow,Light Snow,160,2013-04-21 15:53:00
11:01 AM,35.6,30.2,81,30.27,7.0,SSE,16.1,23.0,0.00,Snow,Light Snow,150,2013-04-21 16:01:00
11:18 AM,35.6,28.4,75,30.26,10.0,South,15.0,26.5,0.00,,Overcast,170,2013-04-21 16:18:00
11:35 AM,35.6,28.4,75,30.25,10.0,SSE,12.7,20.7,0.00,,Overcast,160,2013-04-21 16:35:00
11:53 AM,35.1,28.9,78,30.30,5.0,SSE,18.4,28.8,0.00,Snow,Light Snow,150,2013-04-21 16:53:00
12:53 PM,35.1,28.9,78,30.27,9.0,SSE,11.5,24.2,0.00,,Overcast,160,2013-04-21 17:53:00
1:07 PM,35.6,28.4,75,30.20,10.0,SSE,19.6,29.9,N/A,,Overcast,150,2013-04-21 18:07:00
1:48 PM,35.6,28.4,75,30.18,10.0,SSE,21.9,29.9,N/A,,Overcast,150,2013-04-21 18:48:00
1:53 PM,35.1,28.9,78,30.24,10.0,South,17.3,29.9,N/A,,Overcast,170,2013-04-21 18:53:00
2:39 PM,35.6,28.4,75,30.16,10.0,SSE,20.7,27.6,N/A,,Overcast,160,2013-04-21 19:39:00
2:53 PM,36.0,28.9,76,30.22,10.0,SSE,17.3,25.3,N/A,,Overcast,150,2013-04-21 19:53:00
3:53 PM,37.0,28.9,73,30.18,10.0,SSE,16.1,25.3,N/A,,Overcast,160,2013-04-21 20:53:00
4:53 PM,37.0,28.9,73,30.17,10.0,South,15.0,26.5,N/A,,Overcast,170,2013-04-21 21:53:00
5:53 PM,37.0,30.0,76,30.14,10.0,SSE,11.5,21.9,N/A,,Overcast,150,2013-04-21 22:53:00
6:32 PM,37.4,30.2,75,30.08,10.0,SSE,8.1,-,0.00,Rain,Light Rain,150,2013-04-21 23:32:00
6:53 PM,37.0,30.9,79,30.11,10.0,SSE,12.7,18.4,0.00,Rain,Light Rain,150,2013-04-21 23:53:00
7:53 PM,37.0,32.0,82,30.11,6.0,SSE,12.7,24.2,0.03,Rain,Light Rain,160,2013-04-22 00:53:00
8:53 PM,37.0,33.1,86,30.11,5.0,SSE,15.0,20.7,0.04,Rain,Light Rain,160,2013-04-22 01:53:00
9:53 PM,37.0,34.0,89,30.11,8.0,South,11.5,19.6,0.02,Rain,Light Rain,170,2013-04-22 02:53:00
10:05 PM,37.4,35.6,93,30.07,7.0,South,9.2,18.4,0.00,Rain,Light Rain,170,2013-04-22 03:05:00
10:44 PM,37.4,35.6,93,30.07,7.0,Variable,3.5,-,0.00,Rain,Light Rain,0,2013-04-22 03:44:00
10:53 PM,37.9,36.0,93,30.11,7.0,Calm,Calm,-,0.00,Rain,Light Rain,0,2013-04-22 03:53:00
11:00 PM,37.4,35.6,93,30.07,7.0,South,5.8,-,0.00,,Overcast,180,2013-04-22 04:00:00
11:31 PM,39.2,37.4,93,30.07,7.0,Variable,4.6,-,0.00,,Overcast,0,2013-04-22 04:31:00
11:39 PM,39.2,37.4,93,30.07,6.0,Calm,Calm,-,0.00,,Overcast,0,2013-04-22 04:39:00
11:53 PM,39.0,37.0,93,30.12,6.0,Calm,Calm,-,0.00,,Overcast,0,2013-04-22 04:53:00